#timestamp,LO_Frequency,Hit,StdDev 
1456617615.4,286046992.2,N
1456617635.2,286046995.6,N
1456617655.0,286046996.1,N
1456617655.9,286046996.1,N
1456617675.8,286046998.6,N
1456617695.6,286046997.0,N
1456617715.4,286046998.8,N
1456617735.2,286046996.9,N
1456617755.1,286046999.7,N
1456617756.0,286046999.7,N
1456617775.8,286046997.0,N
1456617795.6,286046997.2,N
1456617815.5,286046995.6,N
1456617835.3,286046991.8,N
1456617855.1,286046995.4,N
1456617875.9,286046997.9,N
1456617895.7,286046993.4,N
1456617915.5,286046992.9,N
1456617935.4,286046996.1,N
1456617955.2,286046994.1,N
1456617975.0,286046995.1,N
1456617975.9,286046995.1,N
1456617995.8,286046995.6,N
1456618015.6,286046997.7,N
1456618035.4,286046995.1,N
1456618055.3,286046997.3,N
1456618075.1,286046996.8,N
1456618076.0,286046996.8,N
1456618095.8,286047000.6,N
1456618115.6,286046999.3,N
1456618135.5,286046998.7,N
1456618155.3,286046996.7,N
1456618175.1,286046997.5,N
1456618195.9,286046995.4,N
1456618215.7,286046993.6,Y
1456618235.5,286046998.8,P
1456618255.4,286047000.8,N
1456618275.2,286046997.7,N
1456618295.0,286046999.6,N
1456618295.9,286046999.6,N
1456618315.8,286046996.6,N
1456618335.6,286046995.9,N
1456618355.4,286046992.1,Y
1456618375.3,286046994.2,P
1456618395.1,286046994.7,N
1456618415.8,286046996.7,N
1456618435.7,286046998.5,N
1456618455.5,286047001.0,N
1456618475.3,286046997.3,N
1456618495.2,286046993.6,N
1456618515.9,286046995.8,N
1456618535.7,286046995.2,N
1456618555.6,286046995.3,N
1456618575.4,286046993.4,Y
1456618595.2,286046997.2,P
1456618615.1,286046995.6,P
1456618616.0,286046995.6,P
1456618635.8,286046996.4,Y
1456618655.6,286046998.1,P
1456618675.5,286046995.4,P
1456618695.3,286046999.4,N
1456618715.1,286046995.1,Y
1456618735.9,286046998.4,P
1456618755.7,286046999.1,N
1456618775.5,286046993.4,P
1456618795.4,286046999.1,N
1456618815.2,286047002.2,N
1456618835.0,286047002.1,N
1456618835.9,286047002.1,N
1456618855.8,286046999.8,N
1456618875.6,286047002.3,N
1456618895.4,286047005.6,N
1456618915.2,286047003.6,N
1456618935.1,286047006.9,N
1456618936.0,286047006.9,N
1456618955.8,286047007.2,N
1456618975.6,286047006.1,N
1456618995.5,286047006.6,N
1456619015.3,286047009.5,N
1456619035.1,286047011.0,N
1456619055.9,286047012.8,N
1456619075.7,286047015.4,Y
1456619095.5,286047013.9,P
1456619115.4,286047011.3,N
1456619135.2,286047011.7,N
1456619155.0,286047014.0,Y
1456619155.9,286047014.0,P
1456619175.8,286047005.4,N
1456619195.6,286047004.5,N
1456619215.4,286047007.3,N
1456619235.3,286047005.0,N
1456619255.1,286047007.4,N
1456619256.0,286047007.4,N
1456619275.8,286047008.1,N
1456619295.7,286047005.1,N
1456619315.5,286047003.9,N
1456619335.3,286047003.1,N
1456619355.2,286047005.0,N
1456619375.9,286047004.2,N
1456619395.7,286047004.4,N
1456619415.5,286047000.1,N
1456619435.4,286046998.6,N
1456619455.2,286046998.9,N
1456619475.0,286046996.4,N
1456619475.9,286046996.4,N
1456619495.8,286046995.9,N
1456619515.6,286046993.6,N
1456619535.4,286046994.6,N
1456619555.3,286046993.2,N
1456619575.1,286046990.4,N
1456619576.0,286046990.4,N
1456619595.8,286046992.7,N
1456619615.7,286046991.2,N
1456619635.5,286046993.2,N
1456619655.3,286046991.6,N
1456619675.2,286046988.5,N
1456619695.9,286046993.2,N
1456619715.7,286046996.4,N
1456619735.6,286046991.9,N
1456619755.4,286046994.1,N
1456619775.2,286046995.0,N
1456619795.0,286046997.5,N
1456619795.9,286046997.5,N
1456619815.8,286046994.1,N
1456619835.6,286046993.4,N
1456619855.4,286046992.6,N
1456619875.3,286046990.3,N
1456619895.1,286046994.3,N
1456619915.8,286046995.9,N
1456619935.7,286046997.2,N
1456619955.5,286046996.8,N
1456619975.3,286046998.6,N
1456619995.2,286047001.1,N
1456620015.9,286047000.1,N
1456620035.7,286046999.9,N
1456620055.6,286047002.2,N
1456620075.4,286047002.1,N
1456620095.2,286047000.2,N
1456620115.0,286047001.6,N
1456620116.0,286047001.6,N
1456620135.8,286046999.4,N
1456620155.6,286046999.1,N
1456620175.4,286047002.1,N
1456620195.3,286046999.0,N
1456620215.1,286046997.2,N
1456620235.8,286046997.1,N
1456620255.7,286046998.3,N
1456620275.5,286046998.8,N
1456620295.3,286047000.5,N
1456620315.2,286046999.3,N
1456620335.9,286047001.2,N
1456620355.7,286047001.2,N
1456620375.6,286046999.0,N
1456620395.4,286047002.6,N
1456620415.2,286047002.3,N
1456620435.1,286047001.5,N
1456620436.0,286047001.5,N
1456620455.8,286047002.6,N
1456620475.6,286047000.1,N
1456620495.4,286047000.9,N
1456620515.3,286047002.1,N
1456620535.1,286047004.0,N
1456620555.9,286047006.0,Y
1456620575.7,286047000.7,P
1456620595.5,286046999.5,P
1456620615.3,286047000.6,N
1456620635.2,286047001.1,N
1456620655.0,286046999.0,N
1456620655.9,286046999.0,N
1456620675.7,286046998.9,N
1456620695.6,286047001.6,N
1456620715.4,286047001.6,N
1456620735.2,286047005.1,Y
1456620755.1,286047004.8,P
1456620756.0,286047004.8,N
1456620775.8,286047005.0,N
1456620795.6,286047005.1,N
1456620815.5,286047003.2,N
1456620835.3,286047003.7,N
1456620855.1,286047003.9,N
1456620875.9,286047003.2,N
1456620895.7,286047005.3,Y
1456620915.5,286047001.1,P
1456620935.4,286046998.5,N
1456620955.2,286046998.9,N
1456620975.0,286046996.5,N
1456620975.9,286046996.5,N
1456620995.8,286046999.1,N
1456621015.6,286047000.9,N
1456621035.4,286046998.2,N
1456621055.2,286046998.3,N
1456621075.1,286046999.2,N
1456621076.0,286046999.2,N
1456621095.8,286046998.5,N
1456621115.6,286047002.1,N
1456621135.5,286047002.2,N
1456621155.3,286047000.1,N
1456621175.1,286047000.5,N
1456621195.9,286047000.3,N
